#timestamp,LO_Frequency,Hit,StdDev 
1600554275.8,286047034.6,P
1600554295.7,286047034.6,P
1600554315.5,286047035.5,P
1600554335.4,286047035.5,Y
1600554355.2,286047001.9,P
1600554375.0,286047002.7,N
1600554375.9,286047002.7,N
1600554395.8,286047001.6,N
1600554415.6,286047001.9,N
1600554435.4,286047003.3,N
1600554455.3,286047005.1,N
1600554475.1,286047003.0,N
1600554495.9,286047003.2,N
1600554515.7,286047004.1,N
1600554535.5,286047004.0,N
1600554555.4,286047004.3,N
1600554575.2,286047003.5,N
1600554595.0,286047004.1,N
1600554596.0,286047004.1,N
1600554615.8,286047003.9,N
1600554635.6,286047003.6,N
1600554655.5,286047005.9,N
1600554675.3,286047004.5,N
1600554695.1,286047005.0,N
1600554715.9,286047004.8,N
1600554735.7,286047005.8,N
1600554755.6,286047005.4,N
1600554775.4,286047003.7,N
1600554795.2,286047006.3,N
1600554815.1,286047006.1,N
1600554816.0,286047006.1,N
1600554835.8,286047008.5,N
1600554855.6,286047008.6,N
1600554875.5,286047010.7,N
1600554895.3,286047012.1,Y
1600554915.2,286047006.2,P
1600554935.9,286047008.3,P
1600554955.7,286047008.2,P
1600554975.6,286047008.4,Y
1600554995.4,286047001.9,P
1600555015.2,286047001.5,N
1600555035.1,286047003.8,N
1600555036.0,286047003.8,N
1600555085.9,286047002.9,E
1600555095.8,286047001.8,N
1600555115.6,286046998.4,P
1600555135.5,286046996.7,N
1600555155.3,286046997.5,N
1600555175.1,286046995.4,N
1600555195.9,286046995.2,N
1600555215.7,286046996.7,N
1600555235.5,286046996.9,N
1600555255.4,286046999.7,N
1600555275.2,286047000.2,N
1600555295.1,286047002.0,N
1600555296.0,286047002.0,N
1600555315.8,286047003.2,N
1600555335.6,286047001.7,N
1600555355.5,286047004.2,N
1600555375.3,286047001.5,N
1600555395.2,286047002.9,N
1600555415.9,286047006.0,N
1600555435.7,286047005.3,N
1600555455.6,286047002.9,N
1600555475.4,286047003.4,N
1600555495.2,286047005.5,N
1600555515.1,286047002.9,N
1600555516.0,286047002.9,N
1600555535.8,286047005.2,N
1600555555.7,286047005.5,N
1600555575.5,286047007.4,N
1600555595.3,286047008.6,N
1600555615.2,286047008.9,N
1600555635.0,286047010.1,N
1600555635.9,286047010.1,N
1600555655.8,286047010.5,N
1600555675.6,286047009.8,N
1600555695.4,286047012.6,N
1600555715.3,286047014.4,Y
1600555735.1,286047012.4,P
1600555755.9,286047010.0,N
1600555775.7,286047009.3,N
1600555795.5,286047009.9,Y
1600555815.4,286047001.5,P
1600555835.2,286047003.7,N
1600555855.0,286047003.1,N
1600555855.9,286047003.1,N
1600555875.8,286047003.5,N
1600555895.6,286047006.0,N
1600555915.5,286047004.6,N
1600555935.3,286047005.5,N
1600555955.1,286047003.1,N
1600555975.9,286047003.4,N
1600555995.7,286047005.0,N
1600556015.6,286047008.3,Y
1600556035.4,286047006.6,P
1600556055.2,286047009.3,P
1600556075.1,286047010.5,P
1600556076.0,286047010.5,Y
1600556095.8,286047002.2,P
1600556115.6,286047004.1,N
1600556135.5,286047003.2,N
1600556155.3,286047005.2,N
1600556175.2,286047005.8,Y
1600556195.9,286047000.5,P
1600556215.7,286047000.9,N
1600556235.6,286047001.6,N
1600556255.4,286047004.4,N
1600556275.3,286047001.9,N
1600556295.1,286047002.6,N
1600556296.0,286047002.6,N
1600556315.8,286047002.0,N
1600556335.7,286047000.4,N
1600556355.5,286047000.0,N
1600556375.3,286046999.9,N
1600556395.2,286047001.6,N
